Location: Kott?ru
(16.6209°N, 80.6208°E)
Time: 01:09:59
(UTC+00:00)

ATLAS 2AS CENTAUR R/B - Pass Details

Date: 18 September 2020
Orbit: 939 x 1273 km, 63.7° (Epoch: 19 October)

Event Time Altitude Azimuth Distance (km) Brightness Sun altitude
Rises 15:30:36 0° 226° (SW) 4,093 6.0 -41.9°
Reaches altitude 10° 15:33:34 10° 234° (SW) 3,168 5.4 -42.5°
Maximum altitude 15:40:30 36° 299° (WNW) 1,871 4.2 -44.1°
Enters shadow 15:41:19 36° 311° (NW) 1,899 4.2 -44.3°
Exits shadow 15:50:19 - 11° (N) 4,073 5.8 -46.3°
Sets 15:50:48 0° 12° (NNE) 4,225 5.9 -46.4°
